FENGYUN 1C DEB

Satellite information

Favourite Embed

Satellite Type and Status

DEBRISIN ORBIT

Key statistics

Satellite FENGYUN 1C DEB at a glance.

Uptime

9610

Days in orbit

Revolutions

≈ 14.4

Per day

Orbit

SSO

Sun Synchronous Orbit

Inclination

98.9

Latest

Satellite identification and parameters

Extended collection of information and parameters for FENGYUN 1C DEB.

Object identification

Identified? True

Debris? True

Object name: FENGYUN 1C DEB

International designator: 1999-025AGM

Object number (NORAD): 30474

Object ID (CCSDS): 30474

Country: PEOPLES REPUBLIC OF CHINA (PRC)

Current information (Y/N): Y

RCS size: SMALL

Orbital parameters

Period: 100.279 minutes

Inclination: 98.9328 deg

SMA: 7149.895 km

Apoapsis: 789.099 km

Periapsis: 754.42 km

RAAN: 317.7912 deg

Eccentricy: 0.00242516

Argument of periapsis: 309.1333 deg

Mean anomaly: 179.0628 deg

Mean motion: 14.3599621 rev/day

Mean motion (dot): 0.00007291 rev/day2

B* drag term: 0.002514991 1/REarth

Two-line elements (TLE)

Creation date: Aug. 31, 2025, 2:26 a.m.

Reference frame: TEME

Reference center: EARTH

Epoch: Aug. 30, 2025, 6:16 p.m. UTC

TLE line 0: 0 FENGYUN 1C DEB

TLE line 1: 1 30474U 99025AGM 25242.76125003 .00007291 00000-0 25150-2 0 9996

TLE line 2: 2 30474 98.9328 317.7912 0024252 309.1333 179.0628 14.35996210959002

Live tracking on map

Real-time ground track for satellite FENGYUN 1C DEB.

In-orbit conjunctions

A list of the most updated potential collisions computed for object FENGYUN 1C DEB.

Target Orbit TCA Probability of collision Miss distance Type
CZ-6A DEB LEO 2025-07-09 05:52:58 0.0001810148 294.0 (m) DEBRIS
CZ-6A DEB LEO 2025-03-05 03:54:14 0.0001116464 298.0 (m) DEBRIS
COSMOS 1452 LEO 2025-02-24 13:40:58 0.000111826 474.0 (m) PAYLOAD
SCOUT G-1 R/B LEO 2025-02-18 18:31:13 0.002215314 64.0 (m) ROCKET BODY

Associated space launch

Chinese polar orbiting meteorological satellite

FENGYUN 1C DEB was lifted into orbit during the mission ‘Long March 4B | Feng Yun 1C’, on board a Long March 4B space rocket.

The launch took place on May 10, 1999, 1:33 a.m. from Launch Complex 7.

For more information about the launch, click the button.

Launch to space Long March 4B | Feng Yun 1C
Long March 4B | Feng Yun 1C

Agency: N/A

Status: Launch Successful

Launch date: May 10, 1999, 1:33 a.m. UTC

Rocket: Long March 4B

Launch pad: Launch Complex 7

Location: Taiyuan Satellite Launch Center, People's Republic of China

...

Latest news about this satellite

There are no fresh news available about this satellite. Check back as we update our databases every day.


Newsletter sign-up

Weekly statistics, charts and insights to help you stay on top of the space industry.